Dewpoint
-13 -16 -18 -21 -23 -26 -28 -29 -29 -28 -27 -26 -25 -24 -24 -24 -23 -22 -21 -20 -21 -22 -21 -20 -22 -14 -9 -14 -18 -18 -21 -21 -20 -19 -16 -12 -12 -13 -14 -15 -14 -16 -14 -17 -15 -16 -16
-14 -17 -21 -24 -27 -29 -29 -28 -27 -26 -24 -23 -23 -23 -23 -22 -21 -19 -18 -19 -20 -17 -13 -14 -14 -14 -7 -14 -17 -17 -18 -20 -21 -20 -15 -12 -11 -11 -12 -12 -12 -11 -12 -16 -16 -16 -14
-15 -21 -24 -27 -29 -28 -28 -26 -24 -22 -21 -21 -21 -21 -22 -20 -17 -16 -16 -16 -12 -10 -12 -16 -14 -12 -14 -15 -15 -18 -17 -18 -19 -18 -14 -16 -14 -12 -10 -10 -10 -14 -14 -15 -15 -15 -15
-18 -24 -26 -28 -28 -27 -25 -23 -21 -20 -19 -20 -21 -21 -20 -16 -16 -12 -11 -9 -11 -16 -16 -14 -14 -11 -13 -13 -13 -15 -17 -18 -17 -17 -16 -16 -16 -13 -11 -11 -14 -11 -12 -10 -15 -16 -16
-23 -26 -27 -27 -27 -25 -22 -20 -19 -19 -19 -21 -22 -19 -15 -15 -9 -8 -9 -10 -11 -12 -12 -12 -9 -11 -14 -13 -12 -14 -16 -17 -17 -16 -17 -17 -17 -18 -16 -15 -15 -14 -13 -11 -13 -15 -16
-25 -27 -27 -27 -24 -22 -19 -19 -19 -20 -20 -21 -19 -15 -14 -12 -8 -11 -13 -13 -13 -13 -15 -16 -16 -13 -14 -15 -11 -12 -15 -16 -18 -17 -16 -17 -18 -17 -20 -21 -19 -17 -17 -16 -14 -14 -15
-26 -26 -26 -23 -21 -19 -18 -19 -21 -22 -22 -20 -15 -12 -10 -8 -8 -13 -17 -9 -9 -13 -16 -16 -16 -15 -12 -13 -11 -11 -13 -15 -17 -18 -15 -17 -17 -14 -13 -15 -17 -18 -17 -19 -18 -16 -14
-26 -26 -24 -21 -19 -18 -19 -20 -23 -24 -23 -19 -12 -11 -9 -9 -9 -12 -8 -6 -5 -8 -12 -15 -15 -13 -13 -10 -11 -10 -11 -14 -15 -16 -16 -15 -9 -12 -14 -14 -14 -14 -16 -17 -14 -16 -13
-26 -24 -21 -19 -18 -19 -18 -19 -21 -22 -17 -17 -12 -10 -11 -11 -11 -8 -6 -10 -14 -9 -11 -14 -13 -12 -11 -11 -9 -9 -9 -11 -12 -13 -13 -9 -9 -11 -11 -11 -11 -10 -10 -10 -10 -12 -13
-24 -21 -20 -18 -18 -18 -15 -17 -19 -18 -13 -16 -14 -11 -10 -12 -6 -8 -3 -13 -16 -14 -5 -11 -13 -10 -10 -11 -9 -9 -9 -9 -11 -10 -9 -8 -10 -10 -10 -8 -8 -9 -9 -9 -9 -9 -13
-22 -20 -19 -18 -19 -16 -15 -16 -18 -13 -10 -12 -15 -13 -12 -12 -8 -3 -1 -12 -7 -1 4 -12 -12 -9 -10 -10 -10 -9 -9 -9 -9 -10 -8 -5 -8 -8 -8 -7 -8 -8 -9 -9 -9 -9 -9
-21 -20 -19 -18 -19 -14 -14 -13 -14 -11 -11 -15 -11 -13 -13 -7 -11 -11 -13 -14 -7 1 3 -8 -11 -11 -12 -10 -8 -9 -9 -9 -8 -8 -8 -7 -9 -9 -8 -9 -9 -10 -9 -8 -8 -7 -5
-21 -20 -19 -19 -19 -13 -12 -12 -11 -11 -9 -8 -10 -13 -15 -8 -0 -13 -17 -2 0 8 -11 -9 -10 -11 -10 -8 -8 -8 -8 -6 -6 -2 -5 -7 -8 -9 -10 -10 -9 -10 -8 -4 -4 -5 -5
-21 -21 -20 -19 -18 -13 -11 -10 -8 -7 -8 -7 -7 -9 -7 -13 -13 -17 -5 -5 9 -8 -8 -9 -10 -9 -7 -8 -7 -7 -7 -5 -5 -5 -6 -5 1 -8 -11 -9 -9 -8 -7 -4 -3 -8 -9
-19 -21 -22 -20 -19 -14 -11 -7 -8 -7 -7 -8 -5 -3 -4 -7 -11 -10 -1 5 0 -8 -9 -8 -9 -8 -7 -7 -7 -7 -4 -3 -3 -4 -1 -2 -1 -8 -11 -11 -10 -4 -3 -7 -3 -5 -5
-19 -22 -24 -21 -20 -14 -14 -9 -8 -7 -8 -10 -3 -3 -7 -10 -9 -3 -6 -2 -6 -8 -7 -8 -6 -7 -6 -6 -6 -6 -4 -3 -3 -5 -5 -2 1 -7 -10 -9 -9 -7 -8 -3 0 -0 -5
-21 -23 -25 -23 -20 -16 -14 -13 -10 -8 -8 -10 -2 -6 -10 -14 -7 -7 4 -5 -6 -7 -6 -4 -6 -6 -5 -5 -5 -4 -3 -3 -5 -6 -5 -4 -3 -2 -8 -4 -3 -5 -5 -6 -6 -3 -1
-24 -24 -25 -24 -21 -20 -14 -13 -14 -13 -10 -9 -3 -7 -13 -11 -7 -8 -4 -6 -7 -7 -6 -6 -6 -6 -5 -5 -5 -4 -3 -3 -4 -6 -3 -4 -2 -2 -3 -9 -9 -8 -6 -7 -3 -1 0
-26 -27 -24 -25 -21 -20 -20 -16 -12 -9 -11 -3 -9 -8 -9 -6 4 -4 -5 -6 -6 -7 -7 -6 -5 -5 -5 -3 -2 -5 -4 -2 -3 -7 -4 -4 -2 -2 -1 -3 -7 -5 -6 -8 -8 -7 -3
-23 -26 -26 -25 -22 -20 -18 -8 -8 -10 -10 -6 -6 4 -6 -7 -6 -5 -5 -5 -4 -5 -5 -5 -5 -6 -4 -4 -6 -4 -4 -3 -2 -6 -10 -7 -4 -2 1 3 -1 -1 -6 -9 -9 -6 -4
-26 -24 -27 -23 -22 -19 -11 -8 -10 -10 -11 -5 -4 -2 -2 1 -6 -6 -6 -6 -6 -5 -6 -5 -4 -4 -4 -2 -4 -5 -5 -4 -3 -4 -5 -5 -1 -2 -1 -1 -6 -6 -5 -7 -9 -9 -7
-26 -24 -25 -21 -20 -16 -8 -8 -10 -11 -17 -4 -3 -6 -5 -5 -5 -6 -6 -6 -7 -6 -5 -5 -4 -4 -4 -3 -4 -3 -4 -4 -4 -4 -4 -5 0 -2 -3 -4 -6 -5 -6 -6 -7 -8 -9
-23 -23 -21 -20 -20 -19 -12 -10 -13 -17 -8 -4 -5 -4 -4 -6 -6 -7 -7 -6 -6 -6 -4 -5 -5 -4 -4 -5 -5 -4 -4 -3 -3 -2 -2 -3 -0 -0 1 -2 -4 -3 0 -1 -3 -1 -2
-19 -19 -19 -18 -19 -19 -18 -17 -13 -11 -8 -3 -3 -5 -6 -5 -9 -9 -8 -6 -6 -6 -5 -5 -4 -4 -3 -5 -4 -3 -3 -3 -3 -3 -3 -2 -1 -3 0 -0 0 1 -1 0 1 -0 1
-15 -15 -16 -16 -15 -13 -11 -8 -8 -10 -12 -4 -11 -3 -6 -5 -9 -7 -6 -6 -6 -5 -4 -4 -4 -2 -3 -3 -2 -1 -1 -1 -2 -3 -3 -4 -2 -1 1 -1 -1 -4 -2 -1 -3 -3 1
-17 -18 -20 -21 -23 -18 -10 -7 -8 -8 -9 -8 -10 -12 -4 -4 -6 -8 -6 -5 -5 -5 -3 -3 -2 -1 -2 -4 -3 2 0 -2 -2 -4 -6 -6 -4 -2 -1 1 -1 3 -3 -7 -5 -3 -2
-13 -13 -14 -17 -19 -20 -23 -13 -10 -8 -8 -5 -10 -14 -4 -5 -6 -6 -5 -4 -5 -6 -5 -3 -1 -1 -1 -2 0 1 0 -4 -1 1 -0 -3 -2 0 -1 -1 -4 0 -9 -10 -6 -0 -5
-16 -14 -12 -11 -14 -14 -15 -15 -15 -8 -7 -8 -5 -10 -5 -5 -4 -3 -2 -4 -4 -4 -3 -2 -2 -1 -2 -1 -1 0 -0 -1 0 1 0 -2 -2 -1 -3 -5 -3 -7 -11 -7 -0 -8 -8
-18 -18 -17 -15 -15 -14 -13 -13 -14 -14 -16 -14 -4 -10 -9 -3 -1 -3 -2 -2 -2 -3 -3 -0 -1 -3 -2 0 -2 -3 -1 -0 -1 1 -4 0 3 -1 -2 4 -2 -8 -5 -7 -7 -9 -8
Wind_Speed
7 8 8 7 6 5 4 4 3 2 2 1 2 3 4 4 4 4 4 3 1 2 3 4 5 6 4 3 8 15 17 14 9 6 5 5 7 5 11 4 7 11 6 1 3 4 3
9 9 9 8 7 6 4 3 3 2 2 3 3 3 3 3 3 3 3 3 4 6 8 9 10 8 3 2 11 14 13 10 7 4 4 4 3 5 2 3 7 3 4 3 1 4 1
10 10 10 9 8 7 5 3 3 3 3 3 3 3 3 3 2 4 6 7 8 9 10 15 14 9 13 8 11 12 10 9 6 3 2 4 3 6 2 5 3 6 10 6 1 2 3
11 11 12 11 9 7 5 4 3 3 3 2 2 2 2 3 5 9 9 10 12 10 7 5 8 7 7 10 10 13 8 7 7 4 2 4 2 1 5 2 6 11 11 12 7 3 8
13 13 12 10 8 7 6 4 3 4 4 3 3 4 4 5 10 10 10 10 8 6 4 4 5 2 5 12 14 12 8 3 4 4 4 2 0 2 5 10 10 11 13 17 9 2 4
15 14 12 10 9 8 6 5 4 4 4 3 4 5 5 9 10 10 11 13 11 8 3 5 7 4 10 6 16 13 8 5 3 4 5 2 5 8 2 7 10 10 11 5 8 8 6
16 14 12 10 10 8 7 5 5 5 4 4 6 6 8 10 10 12 11 4 3 4 15 16 11 11 9 6 8 16 13 5 4 4 6 5 5 7 6 7 7 6 6 7 4 6 8
16 14 12 11 10 8 7 6 6 6 5 5 7 8 8 9 9 7 2 1 3 6 10 10 10 10 9 12 8 19 12 4 5 2 3 6 8 4 3 5 5 4 5 7 3 2 8
16 14 13 12 10 8 7 6 7 6 6 6 8 8 9 8 6 3 3 4 14 8 4 6 8 11 12 6 17 19 17 6 9 5 5 11 10 2 5 4 6 1 8 6 10 10 15
16 14 13 12 10 8 7 6 7 7 7 6 6 8 7 6 3 4 2 10 5 2 5 5 5 7 14 3 4 15 13 4 1 3 5 7 4 3 2 4 10 8 4 7 10 10 10
16 14 13 12 10 8 7 8 8 8 7 6 5 6 6 4 1 1 3 5 2 3 3 5 6 3 8 9 11 13 11 7 9 4 6 7 6 6 4 6 8 7 9 11 13 13 13
15 14 13 11 10 8 9 9 9 9 9 9 7 6 3 1 1 2 9 5 3 2 1 2 3 5 4 7 6 6 10 3 3 6 12 8 5 8 8 6 5 9 12 14 14 12 13
14 13 12 11 10 9 9 10 12 14 14 14 14 11 6 4 2 6 8 2 1 4 1 2 4 4 2 6 4 7 6 13 8 4 5 7 8 5 15 13 5 10 9 7 8 9 12
12 11 12 11 10 10 10 12 13 12 13 12 12 9 7 7 8 9 3 3 5 3 3 2 3 2 5 9 5 6 7 5 10 12 7 4 6 10 10 8 8 9 8 6 7 8 9
11 10 11 11 10 9 10 10 10 10 11 11 11 9 6 5 5 4 7 5 1 2 3 4 5 6 2 1 5 5 6 7 6 10 8 6 4 4 6 4 8 5 3 8 8 16 10
10 9 10 11 11 9 9 9 9 9 7 5 4 3 7 5 6 1 3 1 2 2 4 3 4 2 5 6 5 6 5 5 5 5 6 4 2 1 2 3 0 5 6 4 5 6 14
9 8 9 11 11 9 8 8 7 6 2 4 2 2 3 4 3 1 2 4 2 1 3 4 4 4 4 5 5 4 4 5 5 6 4 4 4 5 4 1 2 3 2 4 6 9 10
8 7 8 11 10 9 7 6 5 4 0 3 1 1 2 2 3 3 3 2 2 2 1 1 4 4 4 4 3 3 5 4 5 5 4 5 5 4 4 2 4 5 6 6 4 5 7
8 7 7 9 9 8 7 5 4 3 2 1 2 4 4 2 2 3 5 3 2 1 2 1 1 3 2 3 3 3 2 3 2 3 7 5 3 5 6 7 7 6 6 6 8 10 12
7 7 7 8 9 8 8 6 4 4 1 4 1 2 2 2 2 5 4 2 3 1 2 1 1 2 3 1 1 2 1 2 1 1 3 4 7 5 8 4 3 4 8 7 9 7 9
7 7 7 8 8 8 8 6 4 3 1 4 1 0 1 1 3 3 1 1 2 2 1 2 4 3 4 2 2 2 1 3 5 3 4 3 5 6 7 8 12 12 10 12 12 9 8
9 8 8 8 7 7 6 4 2 1 0 3 2 2 2 4 3 3 1 0 2 2 3 1 4 2 4 3 4 5 2 2 1 4 5 2 4 2 6 12 13 15 16 16 17 13 11
12 10 9 7 6 4 4 3 2 1 4 1 1 5 2 4 3 4 1 1 1 1 2 3 4 2 4 2 4 4 4 3 6 7 4 5 2 4 5 5 10 14 13 15 14 6 5
12 10 8 6 4 3 2 1 1 1 4 2 3 2 2 2 4 1 2 1 2 1 2 1 1 2 3 2 5 7 7 9 8 10 9 6 7 7 8 5 6 1 2 4 9 8 7
13 10 7 5 3 2 2 3 3 4 6 6 3 1 2 2 2 4 5 2 3 2 1 1 1 1 1 3 7 6 5 6 7 10 9 9 9 5 4 9 13 10 4 2 3 9 10
13 12 11 9 6 4 3 3 2 3 3 2 3 1 1 2 4 2 6 6 2 1 4 2 1 2 2 4 3 3 3 4 2 3 7 8 7 7 6 9 6 2 3 7 6 7 12
14 13 13 14 12 8 4 1 1 2 2 1 3 2 0 3 3 6 5 4 3 2 2 3 5 5 4 3 2 5 5 1 4 2 3 5 6 10 10 9 8 5 8 6 5 4 4
11 12 12 12 13 13 12 8 2 2 2 2 6 4 1 4 4 8 6 6 4 6 3 4 4 5 6 4 2 3 4 2 3 6 3 3 3 4 5 4 5 11 8 6 1 3 5
8 9 9 10 10 10 10 10 10 8 4 3 4 6 5 4 3 7 11 11 8 6 6 7 3 3 7 4 3 3 4 4 7 4 6 5 5 4 4 3 1 17 9 14 7 7 6
Wind_Direction
199 167 156 159 164 160 174 163 143 122 99 66 32 30 18 11 4 351 342 341 8 123 125 109 112 119 94 137 359 338 350 347 354 336 329 311 285 264 244 241 229 237 127 84 162 190 321
181 160 157 155 155 147 147 134 104 87 57 33 32 25 26 14 2 6 20 64 98 115 113 101 93 65 333 72 346 342 343 351 346 356 359 3 315 284 315 260 273 135 174 178 205 126 104
169 157 152 148 145 140 131 111 81 57 40 32 33 21 23 27 42 83 91 99 110 113 116 114 108 93 57 10 357 353 352 3 15 12 351 21 321 261 225 169 202 163 173 177 330 262 163
160 159 147 145 142 133 122 101 82 57 46 44 53 61 68 86 106 107 99 107 116 112 110 94 89 59 76 12 11 3 17 16 34 33 36 358 23 167 293 162 198 209 232 221 114 237 152
154 154 145 144 138 126 118 104 78 56 49 53 68 83 85 100 122 113 106 106 103 87 87 91 28 225 74 15 15 7 11 1 12 36 18 2 63 237 204 228 215 208 245 211 144 69 306
153 150 146 142 133 127 114 94 68 54 53 67 92 99 98 122 125 117 105 96 80 40 48 62 15 134 37 5 19 8 351 350 312 298 263 267 232 221 233 242 255 299 207 220 256 89 294
151 149 145 140 131 122 104 82 64 57 59 82 110 102 114 129 132 126 119 353 193 75 64 64 59 73 32 5 353 11 1 330 278 247 269 339 243 40 32 351 342 339 295 281 78 45 304
150 147 144 139 130 114 94 73 64 60 71 99 125 110 124 135 141 148 37 1 31 126 83 69 67 56 31 23 10 14 14 351 330 312 218 189 76 48 17 349 341 319 291 241 324 252 289
148 145 144 138 126 109 88 71 66 68 79 104 140 129 134 145 146 134 93 120 136 135 144 70 56 35 12 22 32 14 9 347 347 42 29 21 75 15 321 30 314 102 329 4 303 324 268
146 146 145 136 124 102 81 74 73 80 83 93 141 149 138 141 87 118 50 146 151 226 230 72 18 30 7 330 76 18 11 348 74 32 48 55 54 335 277 90 336 295 52 296 282 284 282
145 150 144 134 122 96 80 84 80 89 82 78 100 158 156 170 100 328 195 155 135 295 316 37 55 353 17 43 340 21 10 23 36 66 243 88 56 355 33 4 327 16 321 292 285 276 278
148 149 143 134 122 100 93 88 88 89 77 74 89 97 125 9 287 177 168 170 282 236 43 75 10 343 331 44 28 12 34 49 3 62 59 82 85 39 358 303 312 301 283 262 248 257 257
147 145 142 135 125 110 102 97 97 95 91 83 78 76 80 117 163 151 153 247 223 64 189 68 355 333 345 20 40 16 11 38 30 303 145 132 61 96 4 314 184 320 295 275 220 215 247
140 141 143 143 133 122 115 109 107 102 92 84 76 71 73 85 114 128 171 226 71 347 7 88 303 275 7 355 99 353 331 55 16 334 290 303 170 8 13 22 327 302 321 308 298 301 324
138 140 149 149 144 137 129 125 118 110 103 89 64 45 46 97 119 128 276 57 147 356 19 310 232 274 130 171 309 310 69 30 15 11 344 338 94 124 35 353 340 14 282 5 294 264 259
136 142 150 154 153 147 142 143 132 126 110 60 48 81 42 75 119 59 42 239 97 9 314 268 309 332 326 21 311 349 30 14 356 22 334 355 268 80 65 276 76 306 341 266 216 273 268
131 136 146 158 162 153 151 151 156 159 126 8 55 188 10 96 105 163 98 69 118 89 309 316 335 296 348 344 338 20 38 112 358 336 317 306 253 138 211 88 331 256 294 295 300 294 290
125 125 143 159 161 161 157 154 153 171 305 40 32 167 317 133 240 44 71 60 354 109 228 314 316 331 330 0 334 31 7 14 6 326 337 31 317 285 357 121 231 284 308 290 286 299 297
120 127 137 148 157 163 157 158 150 149 124 73 47 66 354 34 83 94 136 114 17 235 349 314 356 340 352 339 307 358 26 67 2 330 359 355 241 282 178 208 209 258 272 276 260 255 266
123 131 136 143 153 157 151 143 144 153 88 88 217 44 38 64 43 130 153 159 141 51 81 0 49 283 260 265 39 350 1 120 301 335 345 290 279 277 290 316 301 236 245 260 265 274 307
122 123 130 137 150 153 151 141 132 167 98 93 47 324 142 182 104 96 171 232 181 195 195 280 188 275 298 302 285 309 17 202 194 168 242 277 267 271 268 256 259 269 263 263 264 273 282
110 115 126 134 143 156 160 160 172 201 333 84 130 166 199 124 131 178 155 94 263 139 297 140 284 62 291 276 284 304 300 293 279 191 248 208 279 328 278 243 257 262 258 254 253 265 269
100 109 118 123 122 142 187 214 249 285 132 82 116 149 254 152 189 251 55 118 106 266 124 337 315 262 246 8 308 345 326 288 291 278 274 249 266 271 288 332 298 267 250 238 252 238 251
96 98 103 106 104 101 113 137 148 123 167 116 164 163 229 206 237 322 179 177 169 2 331 24 212 306 44 261 283 261 256 280 261 259 258 268 252 269 291 286 247 82 214 309 237 250 230
85 83 79 76 83 99 122 117 88 89 130 129 125 66 288 240 229 181 183 153 136 135 84 141 114 13 225 258 281 278 256 257 256 241 233 237 278 290 277 296 291 214 141 213 198 275 227
75 70 64 59 60 69 106 145 114 122 160 185 259 290 326 301 241 192 184 197 233 167 171 132 173 174 195 279 292 250 289 307 292 231 202 246 245 266 290 302 289 92 156 186 184 274 131
71 65 58 54 54 55 64 115 214 202 202 202 272 179 79 268 225 186 209 215 228 221 281 148 176 200 230 251 278 278 276 349 283 280 264 239 248 256 257 256 266 135 172 181 245 50 149
64 60 57 53 52 53 51 46 21 247 247 243 268 251 225 279 224 210 218 203 206 237 244 128 194 217 201 252 265 257 271 300 269 219 203 262 260 246 257 267 266 156 166 224 247 262 255
51 49 45 44 45 45 44 42 41 35 359 289 301 278 246 269 283 222 223 224 223 235 238 192 220 212 210 247 251 279 263 247 266 295 185 240 224 306 259 271 198 192 199 218 237 255 260
Height
1525 1526 1527 1528 1529 1530 1532 1533 1532 1533 1533 1533 1531 1531 1530 1529 1529 1529 1529 1529 1529 1528 1528 1528 1528 1529 1529 1530 1533 1530 1525 1523 1522 1520 1519 1516 1512 1509 1503 1502 1506 1503 1506 1511 1513 1514 1514
1524 1526 1527 1528 1529 1531 1532 1533 1533 1533 1533 1532 1531 1531 1531 1530 1530 1529 1529 1529 1529 1529 1529 1530 1530 1531 1530 1530 1533 1531 1526 1524 1522 1521 1519 1517 1515 1513 1507 1507 1506 1507 1508 1513 1513 1513 1515
1524 1526 1527 1529 1530 1532 1533 1534 1534 1534 1533 1533 1532 1532 1531 1531 1531 1530 1530 1530 1531 1531 1531 1532 1532 1532 1534 1538 1534 1530 1527 1524 1521 1521 1520 1519 1517 1515 1512 1511 1514 1510 1511 1512 1514 1513 1512
1524 1527 1528 1530 1531 1532 1534 1534 1535 1534 1533 1533 1533 1533 1532 1532 1532 1532 1532 1532 1533 1533 1533 1533 1533 1534 1537 1536 1533 1531 1527 1526 1523 1522 1521 1519 1518 1517 1513 1514 1512 1509 1509 1505 1513 1514 1513
1525 1527 1529 1531 1532 1533 1535 1536 1536 1535 1534 1533 1533 1533 1533 1533 1534 1534 1535 1535 1535 1535 1535 1535 1536 1534 1537 1538 1534 1531 1528 1527 1525 1523 1521 1520 1518 1515 1515 1508 1503 1502 1498 1494 1509 1516 1514
1526 1528 1531 1532 1533 1535 1536 1537 1537 1536 1535 1535 1534 1535 1534 1535 1536 1537 1537 1537 1538 1538 1537 1537 1538 1538 1539 1539 1535 1533 1530 1528 1525 1523 1521 1518 1514 1506 1505 1502 1501 1491 1494 1496 1498 1514 1515
1527 1530 1532 1534 1535 1536 1537 1538 1537 1537 1536 1536 1536 1536 1536 1537 1538 1539 1539 1539 1542 1541 1540 1539 1541 1540 1541 1539 1537 1534 1530 1527 1524 1521 1513 1515 1505 1511 1523 1520 1515 1509 1506 1502 1502 1518 1522
1528 1531 1533 1535 1537 1538 1538 1539 1538 1537 1537 1537 1537 1537 1538 1539 1540 1541 1541 1541 1540 1544 1544 1544 1543 1543 1543 1540 1537 1536 1532 1529 1522 1515 1518 1514 1523 1530 1530 1526 1520 1517 1513 1508 1512 1522 1525
1530 1533 1535 1537 1538 1539 1539 1540 1539 1539 1538 1538 1538 1539 1539 1541 1542 1543 1542 1542 1542 1542 1540 1546 1545 1545 1544 1543 1541 1539 1537 1532 1526 1521 1519 1523 1531 1535 1531 1527 1524 1523 1522 1519 1525 1519 1518
1531 1534 1536 1538 1540 1540 1541 1541 1540 1540 1540 1539 1539 1540 1541 1542 1546 1543 1544 1544 1544 1543 1533 1544 1544 1546 1545 1542 1542 1543 1539 1537 1531 1528 1530 1534 1538 1535 1531 1531 1535 1525 1533 1533 1528 1523 1512
1533 1536 1538 1540 1541 1542 1542 1542 1541 1541 1541 1541 1541 1541 1542 1543 1544 1546 1546 1544 1545 1545 1550 1548 1547 1549 1546 1546 1546 1544 1542 1537 1534 1533 1534 1537 1539 1537 1534 1543 1542 1531 1537 1533 1527 1522 1517
1535 1537 1539 1541 1543 1543 1543 1543 1543 1543 1543 1542 1542 1543 1544 1545 1544 1544 1544 1546 1546 1542 1561 1546 1547 1546 1542 1545 1546 1544 1542 1542 1541 1537 1536 1542 1546 1549 1548 1545 1544 1541 1532 1524 1520 1519 1518
1537 1539 1541 1543 1544 1545 1545 1545 1545 1545 1545 1545 1545 1545 1545 1544 1547 1545 1546 1547 1542 1560 1552 1548 1546 1546 1545 1545 1544 1545 1543 1542 1540 1539 1530 1539 1546 1550 1551 1539 1538 1537 1527 1519 1514 1510 1506
1539 1541 1542 1544 1546 1546 1547 1547 1547 1548 1548 1548 1548 1548 1547 1546 1546 1547 1547 1542 1559 1551 1547 1551 1549 1547 1545 1547 1544 1544 1540 1539 1549 1544 1531 1530 1545 1551 1557 1555 1553 1543 1539 1526 1523 1502 1492
1541 1542 1544 1545 1547 1547 1548 1549 1549 1549 1550 1550 1550 1551 1550 1549 1548 1548 1548 1564 1556 1548 1551 1549 1546 1542 1542 1547 1549 1543 1548 1552 1556 1553 1549 1540 1548 1558 1561 1559 1557 1546 1537 1542 1541 1524 1520
1542 1543 1545 1546 1547 1548 1549 1550 1551 1551 1551 1552 1554 1554 1552 1551 1550 1549 1548 1557 1553 1556 1555 1552 1545 1549 1544 1545 1545 1543 1548 1560 1558 1559 1558 1552 1552 1556 1560 1561 1557 1554 1552 1543 1540 1533 1512
1543 1544 1545 1547 1548 1549 1551 1551 1552 1552 1553 1553 1554 1552 1554 1553 1551 1549 1558 1553 1556 1559 1558 1555 1549 1549 1550 1550 1551 1549 1554 1561 1563 1559 1559 1556 1551 1556 1559 1560 1563 1549 1544 1547 1543 1538 1527
1545 1546 1546 1547 1549 1550 1551 1552 1553 1554 1554 1554 1554 1551 1555 1554 1550 1549 1551 1555 1560 1559 1561 1559 1558 1555 1555 1556 1553 1554 1557 1559 1567 1564 1555 1560 1553 1546 1552 1559 1561 1559 1555 1552 1552 1542 1540
1546 1547 1548 1548 1550 1551 1552 1553 1554 1555 1555 1556 1555 1555 1556 1554 1560 1552 1559 1560 1561 1560 1560 1559 1558 1560 1560 1558 1558 1557 1559 1567 1567 1564 1561 1560 1548 1541 1552 1558 1558 1556 1554 1554 1550 1547 1543
1548 1548 1549 1550 1551 1552 1553 1555 1555 1556 1556 1556 1556 1560 1558 1556 1555 1553 1556 1557 1559 1563 1562 1562 1561 1562 1560 1558 1559 1559 1559 1565 1567 1566 1568 1567 1552 1555 1546 1557 1557 1559 1550 1550 1546 1538 1530
1549 1549 1550 1551 1553 1554 1555 1556 1556 1557 1557 1558 1558 1559 1559 1560 1556 1556 1557 1558 1557 1558 1562 1562 1559 1560 1559 1559 1558 1558 1561 1562 1565 1566 1566 1564 1560 1557 1561 1563 1552 1546 1547 1547 1541 1540 1541
1550 1551 1552 1553 1554 1555 1556 1557 1557 1557 1557 1559 1560 1559 1560 1560 1560 1557 1560 1557 1556 1558 1561 1559 1560 1560 1561 1560 1559 1558 1560 1558 1560 1560 1561 1562 1561 1567 1558 1552 1548 1544 1540 1537 1536 1535 1536
1553 1554 1555 1555 1556 1557 1557 1558 1558 1557 1558 1560 1559 1560 1560 1562 1560 1557 1556 1558 1559 1562 1564 1564 1563 1561 1560 1560 1562 1562 1562 1562 1562 1560 1556 1558 1560 1560 1546 1548 1542 1533 1531 1534 1536 1541 1545
1557 1557 1558 1558 1558 1558 1558 1558 1558 1558 1558 1561 1561 1562 1560 1559 1558 1557 1560 1561 1561 1562 1562 1564 1564 1563 1565 1566 1565 1562 1561 1561 1560 1559 1559 1555 1559 1552 1548 1553 1535 1538 1540 1539 1536 1537 1540
1561 1561 1560 1560 1560 1560 1559 1559 1560 1560 1559 1561 1561 1562 1561 1558 1557 1561 1562 1562 1564 1565 1564 1564 1565 1566 1567 1566 1560 1553 1554 1554 1555 1551 1554 1555 1552 1548 1551 1535 1523 1522 1538 1540 1541 1534 1532
1564 1564 1563 1562 1561 1560 1560 1560 1561 1561 1561 1562 1561 1561 1562 1561 1559 1559 1561 1562 1558 1559 1564 1565 1567 1567 1567 1561 1558 1564 1548 1545 1545 1543 1552 1552 1553 1551 1543 1544 1529 1533 1538 1537 1539 1522 1527
1568 1567 1565 1564 1563 1561 1561 1561 1561 1562 1562 1562 1562 1561 1562 1561 1560 1561 1560 1560 1561 1560 1557 1563 1566 1567 1567 1559 1561 1555 1547 1547 1547 1553 1551 1547 1546 1546 1537 1534 1518 1532 1532 1535 1531 1525 1529
1570 1569 1568 1567 1565 1563 1562 1561 1561 1561 1561 1562 1562 1561 1562 1561 1559 1558 1559 1560 1560 1560 1557 1561 1564 1562 1561 1557 1554 1552 1550 1545 1551 1549 1557 1549 1544 1536 1533 1528 1524 1530 1531 1532 1528 1527 1527
1573 1572 1570 1569 1568 1566 1565 1564 1563 1562 1561 1561 1564 1560 1560 1561 1559 1555 1556 1556 1557 1557 1557 1559 1557 1557 1559 1558 1551 1549 1547 1545 1542 1540 1542 1545 1542 1535 1533 1523 1528 1526 1525 1527 1527 1526 1525